Location: Les Jeannots
(43.2262°N, 5.5774°E)
Time: 01:03:25
(UTC+00:00)

Lacrosse 5 rocket - Visible Passes

Search period start: 24 October 2020 00:00
Search period end: 03 November 2020 00:00
Orbit: 460 x 635 km, 57.0° (Epoch: 23 October)

Date Brightness Start Highest point End Pass type
(mag) Time Alt. Az. Time Alt. Az. Time Alt. Az.
24 Oct 1.3 04:45:23 12° SW 04:48:42 67° SE 04:52:27 10° NE visible
25 Oct 0.9 04:40:45 23° SW 04:42:53 89° NW 04:46:40 10° NE visible
26 Oct 4.4 03:00:14 10° E 03:00:14 10° E 03:00:20 10° E visible
26 Oct 1.0 04:35:54 39° WSW 04:37:06 66° NW 04:40:51 10° NE visible
27 Oct 1.2 04:30:54 46° WNW 04:31:19 49° NW 04:35:00 10° NE visible
28 Oct 1.7 04:25:46 38° NNW 04:25:46 38° NNW 04:29:08 10° NE visible
29 Oct 2.3 04:20:31 28° N 04:20:31 28° N 04:23:14 10° NNE visible
30 Oct 2.8 04:15:12 22° N 04:15:12 22° N 04:17:20 10° NNE visible
31 Oct 3.2 04:09:48 17° N 04:09:48 17° N 04:11:24 10° NNE visible
01 Nov 3.5 04:04:22 14° N 04:04:22 14° N 04:05:28 10° NNE visible
01 Nov 3.6 05:42:31 10° NNW 05:43:18 10° N 05:44:05 10° NNE visible
02 Nov 3.7 03:58:53 12° N 03:58:53 12° N 03:59:31 10° NNE visible
02 Nov 3.6 05:36:55 10° N 05:37:43 11° N 05:38:32 10° NNE visible
